Home   Weather   Tacoma   Past weeks

Flag for USA Past Weather in Tacoma, Washington, USA — Yesterday and Last 2 Weeks

55 °F

Broken clouds.

Feels Like: 52 °F
Forecast: 49 / 58 °F
Wind: 13 mph from South

Location: Tacoma Narrows Airport

Current Time: Oct 27, 2016 at 5:50:58 PM

Latest Report: Oct 27, 2016 at 4:53 PM

Visibility: 10 mi

Pressure: 29.85 "Hg

Humidity: 77%

Dew Point: 48 °F

Location of TacomaLocation

Past Weather in Tacoma — Graph


Tacoma Temperature Yesterday

Maximum temperature yesterday: 56 °F (at 7:53 PM)
Minimum temperature yesterday: 50 °F (at 5:53 AM)
Average temperature yesterday: 52 °F

High & Low Weather Summary for the Past Weeks

High60 °F (Oct 15, 3:53 PM)100% (Oct 13, 4:53 AM)30.32 "Hg (Oct 13, 4:53 AM)
Low45 °F (Oct 19, 6:53 AM)50% (Oct 12, 4:53 PM)29.10 "Hg (Oct 15, 3:53 PM)
Average52 °F90%29.79 "Hg
* Reported Oct 12 3:53 PM — Oct 27 3:53 PM, Tacoma, Weather by CustomWeather, © 2016

Note: Actual official high and low records may vary slightly from our data, if they occured in-between our weather recording intervals... More about our weather records


Tacoma Weather History for the Previous 24 Hours

Scroll right to see more
Time TempWeatherWind HumidityBarometerVisibility
3:53 PM
Thu, Oct 27
56 °FCloudy.13 mph75%29.84 "Hg10 mi
2:53 PM57 °FCloudy.13 mph74%29.83 "Hg10 mi
1:53 PM55 °FBroken clouds.12 mph80%29.84 "Hg10 mi
12:53 PM54 °FScattered clouds.6 mph83%29.84 "Hg10 mi
11:53 AM53 °FBroken clouds.No wind86%29.85 "Hg10 mi
10:53 AM53 °FBroken clouds.No wind86%29.84 "Hg10 mi
9:53 AM52 °FScattered clouds.3 mph86%29.84 "Hg10 mi
8:53 AM51 °FScattered clouds.No wind89%29.85 "Hg10 mi
7:53 AM52 °FScattered clouds.No wind83%29.84 "Hg10 mi
6:53 AM52 °FPassing clouds.7 mph86%29.85 "Hg10 mi
5:53 AM51 °FClear.7 mph89%29.84 "Hg10 mi
4:53 AM52 °FPartly cloudy.9 mph86%29.85 "Hg10 mi
3:53 AM53 °FPassing clouds.9 mph83%29.85 "Hg10 mi
2:53 AM53 °FOvercast.5 mph93%29.85 "Hg10 mi
1:53 AM54 °FOvercast.7 mph90%29.87 "Hg10 mi
12:53 AM53 °FPassing clouds.6 mph93%29.86 "Hg10 mi
11:53 PM
Wed, Oct 26
54 °FPassing clouds.10 mph90%29.87 "Hg10 mi
10:53 PM55 °FLight rain. Overcast.14 mph93%29.86 "Hg10 mi
9:53 PM55 °FLight rain. Mostly cloudy.9 mph100%29.84 "Hg10 mi
8:53 PM55 °FLight rain. Mostly cloudy.6 mph100%29.84 "Hg10 mi
7:53 PM56 °FLight rain. Overcast.8 mph97%29.83 "Hg10 mi
7:00 PM54 °FLight rain. Mostly cloudy.6 mph100%29.81 "Hg7 mi
6:00 PM53 °FLight rain. Fog.No wind100%29.80 "Hg1 mi
Weather by CustomWeather, © 2016

See weather overviewHow to use our weather pages